Theta_e
300 308 313 315 315 317 318 317 317 317 315 314 313 311 311 310 309 307 306 305 302 301 301 299 298 299 297 297 296 296 295 294 292 288 288 287 286 287 287 289 289 291 294
295 303 310 314 316 315 317 316 317 317 316 314 313 311 311 310 309 307 306 305 302 301 300 299 298 298 297 297 296 294 295 294 292 286 286 285 286 285 286 286 287 288 291
292 297 305 312 314 313 314 315 317 317 315 314 312 310 310 310 309 307 307 306 304 304 302 300 300 298 296 297 296 295 295 293 292 289 286 286 285 285 284 284 285 287 287
290 293 299 306 312 313 314 315 316 316 315 313 312 311 310 311 309 308 307 306 306 304 304 302 301 299 299 297 295 295 294 292 291 289 287 286 285 283 285 284 283 285 287
288 290 292 297 306 311 313 313 315 316 315 313 312 311 310 310 309 308 306 306 306 305 304 303 302 299 295 298 297 296 294 292 291 290 286 285 282 281 283 284 284 285 286
288 288 290 292 299 306 310 310 311 313 313 313 311 311 309 309 303 300 305 306 305 305 303 303 303 293 294 295 295 296 296 292 290 290 289 288 286 285 285 283 283 282 281
287 288 289 290 294 301 306 309 308 310 312 312 311 310 309 309 300 300 298 307 305 305 305 303 302 300 295 298 295 295 294 295 296 293 291 291 287 286 284 283 283 284 284
286 287 288 289 290 294 301 306 309 309 310 310 311 310 310 309 299 299 297 306 306 305 305 304 302 300 297 298 296 294 294 294 295 294 295 293 291 288 286 286 285 284 283
286 286 287 288 288 289 293 300 306 307 308 309 310 310 309 309 298 298 299 304 305 304 304 304 302 300 296 294 296 293 293 293 295 295 295 295 293 290 288 285 283 281 281
285 286 287 287 287 288 290 293 300 305 305 307 307 309 303 309 298 298 299 305 303 302 301 302 291 299 294 294 296 294 291 292 291 291 291 292 291 289 288 288 285 282 283
285 285 286 286 286 287 288 290 294 299 298 303 302 305 307 306 306 297 298 305 303 300 296 296 298 294 294 294 295 295 294 294 292 291 290 288 288 287 286 287 286 286 284
284 284 285 285 285 286 286 287 289 293 295 298 299 298 299 302 297 296 297 298 302 299 295 297 297 293 294 294 293 296 295 293 290 289 288 287 286 285 286 286 286 287 288
283 282 283 284 285 285 285 285 287 289 292 294 295 296 297 293 299 296 296 296 297 300 297 296 295 293 294 294 293 294 290 290 289 288 287 287 287 287 286 284 282 281 281
282 282 283 284 284 285 284 285 286 288 290 292 293 294 296 293 295 296 295 296 293 293 292 294 294 294 294 294 291 292 291 290 289 289 288 288 287 285 284 283 282 282 282
282 283 283 284 284 284 284 285 286 288 291 291 292 293 292 292 293 295 295 293 294 292 288 287 289 289 289 289 289 290 290 289 288 288 287 286 285 284 283 283 284 282 282
282 283 283 284 285 286 285 285 288 289 289 291 292 293 292 293 293 293 293 293 293 291 289 288 288 288 288 288 288 288 288 287 288 288 287 286 284 283 282 281 283 281 282
282 283 284 285 285 285 285 285 285 288 289 291 291 292 291 291 291 292 292 292 292 291 289 289 288 288 288 288 288 288 287 288 288 288 287 285 285 284 282 281 281 280 281
281 282 284 285 285 285 286 285 285 285 286 287 290 291 291 291 291 291 292 291 288 290 289 288 288 288 288 288 288 288 288 287 287 287 287 286 285 284 281 281 280 280 281
281 283 284 285 285 286 286 286 286 286 286 287 286 289 288 290 290 291 291 288 287 287 288 287 288 288 288 288 288 288 288 287 287 287 286 286 285 284 282 281 280 280 280
281 283 284 284 285 286 286 285 285 285 286 286 286 287 287 287 286 287 287 287 287 287 287 287 287 287 287 287 287 287 287 287 286 286 285 285 284 284 282 280 280 279 279
281 282 284 285 286 286 286 285 286 286 286 286 286 286 288 287 287 287 286 287 287 287 287 287 287 287 287 287 287 287 287 286 286 286 285 285 283 282 282 281 281 281 280
280 282 285 285 285 285 285 286 286 286 286 286 286 286 289 287 286 286 286 287 287 287 287 287 287 287 287 287 287 286 286 286 285 285 284 284 283 283 282 281 280 280 280
283 284 284 285 285 285 285 285 285 285 285 286 286 285 286 286 286 286 286 286 286 286 286 286 286 286 286 287 287 287 286 285 285 285 284 283 282 282 282 281 280 279 279
284 284 284 284 285 285 285 285 285 285 285 285 285 285 285 285 285 286 286 286 286 286 286 286 286 286 286 286 286 286 287 286 286 285 285 284 282 282 282 281 280 279 278
284 284 284 284 284 284 284 284 284 285 285 285 285 285 285 285 285 285 285 285 286 285 285 286 286 286 286 285 285 285 285 285 285 285 285 284 283 282 281 280 279 278 278
284 284 284 284 284 284 284 284 284 284 284 285 285 285 285 285 285 285 285 285 285 285 285 285 285 285 285 285 285 285 284 284 284 284 284 282 281 280 280 279 278 278 277
Wind_Speed
8 7 12 14 19 17 17 16 15 14 16 16 18 18 18 17 17 17 16 15 17 15 14 15 16 15 11 10 9 8 7 4 7 2 2 2 6 7 6 6 5 6 4
11 8 8 11 14 15 17 18 12 14 14 16 17 17 18 17 17 18 18 16 18 18 17 16 16 11 14 12 11 14 11 9 5 6 3 4 5 6 5 6 4 4 5
10 9 7 8 12 13 14 13 12 13 14 16 16 17 17 18 17 18 18 18 17 18 18 18 17 16 15 12 12 12 12 9 6 5 6 3 2 5 4 3 3 3 2
10 10 8 8 10 12 10 11 12 13 14 16 17 18 18 18 18 17 17 16 16 16 17 17 17 18 18 16 14 14 11 10 8 7 5 5 4 4 5 7 6 5 7
8 8 9 10 10 9 8 9 11 13 14 16 16 16 16 16 14 17 16 17 17 16 16 16 16 17 20 19 13 14 14 12 9 9 5 4 5 6 13 8 8 8 7
9 8 9 9 9 9 8 6 10 11 12 13 15 16 16 13 19 21 19 16 16 16 15 16 15 14 16 21 23 22 21 18 16 12 10 10 12 9 11 10 9 8 7
9 9 9 10 9 8 8 8 7 11 11 14 15 16 17 17 20 24 24 16 15 16 16 14 14 11 15 17 22 22 24 27 26 19 18 15 13 14 15 15 14 13 9
9 9 8 10 11 9 7 9 8 8 11 12 13 15 16 15 20 24 24 19 15 16 17 16 17 15 16 17 17 17 17 17 18 13 17 15 15 16 19 18 17 11 4
10 10 9 8 11 11 10 10 9 8 9 11 11 13 15 14 19 24 22 18 17 16 15 16 16 16 19 24 17 17 17 15 17 20 14 15 19 26 20 11 11 12 7
10 11 11 9 10 12 10 11 10 10 11 9 10 12 13 15 17 24 23 13 15 11 11 14 18 17 20 27 19 16 16 16 14 12 9 11 16 20 28 18 15 15 9
8 10 12 10 9 11 11 9 9 11 8 11 11 12 13 14 14 23 26 16 12 11 9 9 10 20 21 28 29 16 18 14 18 14 12 10 11 13 13 12 15 13 13
7 9 13 13 8 9 10 9 9 10 11 14 13 10 8 9 14 20 25 27 16 11 11 10 11 21 23 26 24 23 21 18 10 11 11 12 12 13 13 12 12 10 8
7 10 12 13 11 10 9 9 8 8 10 12 11 10 10 6 8 15 22 24 24 11 9 13 17 21 27 24 28 26 18 11 11 11 12 12 12 11 12 9 5 6 4
10 11 11 12 13 11 7 7 8 8 9 10 10 10 9 6 9 7 9 11 17 12 9 10 15 18 20 18 13 15 11 12 13 12 11 9 9 11 11 10 9 10 6
9 11 12 11 12 11 9 8 9 11 12 10 11 10 9 10 13 14 11 8 8 9 7 3 5 5 6 7 6 9 9 9 9 8 9 9 10 10 10 10 9 11 10
11 10 10 10 10 11 10 9 15 17 12 15 9 11 8 10 12 17 15 14 14 18 6 6 8 9 9 9 9 10 10 11 10 9 10 11 12 12 11 10 8 11 12
13 14 10 12 11 12 8 7 9 7 14 15 15 13 14 11 16 17 16 15 17 19 6 9 9 10 10 10 10 10 12 11 13 11 12 12 12 12 15 13 12 11 10
15 19 13 11 12 11 9 7 6 7 7 8 11 11 14 14 14 13 15 13 8 15 9 8 9 9 9 10 10 11 10 10 11 11 11 12 12 12 13 12 12 12 11
13 12 12 10 10 12 8 7 9 8 8 10 5 8 10 15 15 15 18 8 8 9 8 6 8 9 9 10 10 10 12 12 13 12 12 12 12 12 12 11 11 15 14
14 20 15 11 11 9 8 8 9 9 10 9 9 10 7 7 7 7 8 8 7 7 8 7 8 8 9 10 10 10 10 11 11 11 11 11 11 11 11 12 12 13 12
10 11 17 12 9 8 8 9 8 8 8 7 7 7 13 8 8 8 8 8 8 8 8 8 7 8 9 9 9 10 11 10 11 11 11 11 11 11 10 11 11 12 11
11 11 9 8 7 7 7 7 7 7 7 7 5 5 16 7 7 7 7 7 7 7 6 7 7 8 8 9 9 9 10 11 11 11 10 11 11 10 10 10 10 9 10
10 8 7 5 6 6 6 6 6 6 6 6 6 5 6 6 6 7 7 7 7 6 6 7 7 6 6 7 8 10 11 11 11 11 11 10 10 10 10 10 11 11 11
6 6 5 4 4 5 5 6 6 7 6 6 6 6 6 6 7 7 6 6 6 6 7 7 7 9 8 8 8 8 8 8 8 11 13 11 11 12 9 10 10 12 10
5 4 5 5 5 5 5 5 5 5 5 5 5 5 5 5 6 6 6 6 7 7 8 7 7 10 12 13 11 12 10 12 12 12 9 11 12 14 12 10 11 11 12
3 3 3 3 3 4 4 4 4 4 4 4 5 5 5 6 5 6 6 7 6 6 7 6 7 10 11 10 11 11 12 14 12 14 10 9 10 9 9 10 14 10 11
Wind_Direction
310 249 227 224 227 220 220 216 208 201 193 190 191 193 196 197 194 195 200 194 195 197 197 199 203 201 197 197 194 197 191 164 204 142 146 145 166 188 185 195 197 209 216
324 303 247 224 227 225 219 221 198 199 196 191 192 193 194 196 197 196 200 199 198 198 196 198 205 198 203 198 192 198 200 189 145 162 146 160 179 193 174 193 189 210 186
331 322 297 249 232 231 223 218 193 194 190 193 191 193 194 195 196 200 202 202 202 205 201 200 203 195 200 195 198 201 200 189 171 146 151 147 127 173 166 175 188 200 244
336 329 318 289 258 238 230 205 197 195 188 192 194 194 196 197 197 198 202 203 205 208 209 203 204 198 200 196 195 196 187 186 176 156 146 152 148 154 179 176 186 202 199
329 330 316 304 276 256 236 210 204 197 192 193 195 199 196 198 196 196 199 204 205 207 211 205 204 204 203 197 187 189 183 183 182 184 163 147 153 157 187 181 193 183 203
328 328 319 310 290 256 239 226 198 200 194 190 198 200 197 201 192 191 194 200 206 209 208 209 206 196 200 195 197 193 189 182 188 191 187 192 190 181 172 180 166 170 201
322 323 321 323 307 273 251 229 206 199 194 200 199 200 206 204 190 191 194 202 202 210 209 204 207 200 199 202 207 199 196 196 193 189 193 196 178 177 170 173 189 195 197
318 314 314 318 316 302 261 248 225 209 206 206 206 206 205 206 189 193 195 209 207 210 210 204 202 197 195 196 200 206 208 209 207 199 202 193 192 175 179 184 187 176 97
307 306 305 310 309 303 290 264 246 227 218 217 212 207 210 210 188 193 194 209 215 211 206 203 202 198 192 194 196 200 205 208 212 206 207 191 182 176 172 150 164 167 183
293 295 299 299 292 292 283 271 256 238 231 221 221 217 208 212 190 194 197 210 216 213 204 203 197 198 187 194 199 197 203 204 191 194 189 177 173 177 176 183 168 180 176
270 285 292 287 277 278 276 266 255 246 234 230 226 221 216 207 201 196 201 211 210 206 197 197 200 201 192 195 201 199 204 186 192 187 182 173 172 175 184 189 184 181 182
254 269 283 287 271 272 262 268 247 240 233 231 227 223 216 204 202 198 204 211 208 200 197 198 198 195 199 199 200 205 202 177 178 183 183 182 181 181 183 186 188 195 201
246 262 274 282 278 265 256 261 246 231 229 234 226 224 225 214 208 192 204 210 216 206 195 195 191 193 202 206 205 202 185 175 177 186 193 199 183 177 167 165 132 117 93
250 263 272 275 282 271 248 241 237 225 221 222 222 220 221 214 217 202 203 212 220 212 189 195 196 199 199 203 202 202 186 184 187 191 192 180 167 162 171 173 168 172 173
246 257 266 269 270 276 262 242 232 231 219 216 215 210 204 216 219 206 190 193 197 188 151 142 183 187 192 195 182 188 186 185 185 180 177 170 171 170 173 173 169 175 190
258 261 260 265 267 267 272 279 240 241 228 233 220 200 209 225 186 195 191 187 183 164 178 185 193 195 194 190 185 182 184 183 185 181 181 177 179 176 169 172 173 183 191
250 259 261 255 257 262 255 252 273 257 230 230 224 210 186 194 191 189 190 191 180 171 201 198 198 194 192 187 185 185 187 189 186 187 183 182 182 183 170 176 177 181 191
248 252 256 247 249 251 240 239 248 251 239 230 229 209 199 196 198 190 193 193 192 200 206 197 196 190 188 186 186 186 187 185 190 190 188 185 182 181 176 182 180 182 188
241 247 241 239 241 235 227 221 228 232 236 237 212 210 196 195 196 193 190 194 196 203 208 198 189 187 190 187 187 188 188 190 191 191 187 185 179 176 182 182 182 186 182
245 244 236 242 233 220 216 218 216 216 217 212 209 209 178 167 188 195 199 199 197 199 202 197 187 187 191 191 189 189 190 190 188 187 185 182 179 180 181 174 180 181 191
247 242 234 228 222 213 212 212 209 207 209 202 204 187 180 185 192 197 197 199 198 199 197 196 191 193 193 191 190 190 190 188 188 185 181 181 176 175 176 179 182 191 190
230 233 222 216 205 201 205 204 204 209 205 202 190 187 190 196 198 198 199 199 198 200 197 194 194 194 192 190 186 187 189 189 184 181 179 175 173 176 175 180 178 186 183
227 212 201 199 196 196 200 202 204 203 198 195 184 182 190 198 195 195 197 195 188 187 183 182 183 184 182 184 185 186 187 189 187 176 175 172 173 177 178 181 182 180 182
198 196 192 190 194 199 200 199 199 197 193 187 180 183 188 193 195 198 193 184 180 185 181 184 186 183 182 183 186 187 190 182 174 178 172 172 176 177 179 184 184 184 182
176 175 179 181 189 195 192 193 189 191 189 179 176 180 185 185 188 187 182 178 180 180 183 182 183 186 185 186 186 185 178 167 171 172 174 174 178 179 180 182 178 181 182
156 163 166 169 175 180 183 182 185 181 182 177 176 181 184 189 187 181 178 178 180 184 180 184 186 186 188 191 186 177 168 170 168 168 167 167 171 175 178 182 177 180 180